TimeCST,TemperatureF,Dew PointF,Humidity,Sea Level PressureIn,VisibilityMPH,Wind Direction,Wind SpeedMPH,Gust SpeedMPH,PrecipitationIn,Events,Conditions,WindDirDegrees,DateUTC
12:15 AM,49.3,34.7,57,30.37,7.0,NNW,9.2,-,N/A,,Overcast,330,2013-01-04 06:15:00
12:35 AM,49.3,34.7,57,30.36,7.0,NNW,8.1,-,N/A,,Overcast,340,2013-01-04 06:35:00
12:55 AM,49.3,34.3,56,30.36,7.0,NNW,10.4,-,N/A,,Overcast,340,2013-01-04 06:55:00
1:15 AM,49.3,34.7,57,30.35,7.0,NNW,11.5,-,N/A,,Overcast,330,2013-01-04 07:15:00
1:35 AM,49.3,35.1,58,30.36,7.0,NNW,10.4,-,N/A,,Overcast,330,2013-01-04 07:35:00
1:55 AM,49.1,35.2,59,30.35,7.0,NNW,12.7,-,N/A,,Overcast,330,2013-01-04 07:55:00
2:15 AM,49.1,35.4,59,30.36,7.0,NNW,12.7,16.1,N/A,,Overcast,330,2013-01-04 08:15:00
2:55 AM,49.1,35.2,59,30.35,7.0,NNW,11.5,-,N/A,,Overcast,330,2013-01-04 08:55:00
3:15 AM,49.1,35.4,59,30.35,7.0,NNW,11.5,-,N/A,,Overcast,330,2013-01-04 09:15:00
5:55 AM,45.5,39.6,80,30.38,5.0,NNW,17.3,25.3,N/A,,Haze,340,2013-01-04 11:55:00
6:15 AM,45.1,40.1,82,30.39,4.0,NNW,13.8,-,N/A,,Haze,340,2013-01-04 12:15:00
6:35 AM,44.6,41.0,87,30.39,2.5,NNW,11.5,-,N/A,,Light Drizzle,340,2013-01-04 12:35:00
6:55 AM,44.1,41.2,90,30.39,2.0,NNW,13.8,-,N/A,Rain,Rain,330,2013-01-04 12:55:00
7:15 AM,44.1,41.4,90,30.40,2.0,NNW,12.7,18.4,N/A,Rain,Rain,340,2013-01-04 13:15:00
7:35 AM,44.1,41.7,91,30.41,2.5,NNW,11.5,-,N/A,Rain,Light Rain,340,2013-01-04 13:35:00
7:55 AM,44.2,41.9,91,30.42,2.0,NNW,11.5,-,N/A,Rain,Light Rain,340,2013-01-04 13:55:00
8:15 AM,44.4,41.9,91,30.43,1.5,North,10.4,-,N/A,,Light Drizzle,350,2013-01-04 14:15:00
8:35 AM,44.6,42.1,91,30.43,1.5,NNW,12.7,-,N/A,,Drizzle,340,2013-01-04 14:35:00
8:55 AM,44.6,42.3,91,30.44,1.8,NNW,11.5,-,N/A,Rain,Light Rain,340,2013-01-04 14:55:00
9:15 AM,44.8,42.4,91,30.44,1.5,NNW,11.5,-,N/A,Rain,Light Rain,330,2013-01-04 15:15:00
9:35 AM,45.0,42.6,91,30.45,1.5,NW,11.5,-,N/A,Rain,Rain,320,2013-01-04 15:35:00
9:55 AM,45.1,42.8,91,30.45,1.5,NNW,13.8,18.4,0.01,Rain,Light Rain,330,2013-01-04 15:55:00
10:15 AM,45.5,43.0,91,30.44,1.8,NNW,12.7,-,N/A,Rain,Light Rain,330,2013-01-04 16:15:00
10:35 AM,45.5,43.0,91,30.44,1.5,NNW,12.7,-,N/A,Rain,Light Rain,340,2013-01-04 16:35:00
10:55 AM,45.5,43.0,91,30.44,1.5,NW,12.7,-,N/A,Rain,Rain,320,2013-01-04 16:55:00
11:15 AM,45.5,43.0,91,30.43,1.2,NNW,15.0,-,N/A,Rain,Rain,330,2013-01-04 17:15:00
11:35 AM,45.7,43.3,92,30.43,1.2,NNW,12.7,18.4,0.01,Rain,Light Rain,340,2013-01-04 17:35:00
11:55 AM,45.7,43.5,92,30.42,1.5,NNW,13.8,-,0.01,Rain,Light Rain,330,2013-01-04 17:55:00
12:15 PM,45.9,43.7,92,30.41,1.5,NNW,13.8,-,N/A,,Drizzle,340,2013-01-04 18:15:00
12:55 PM,46.0,43.7,92,30.39,1.5,NW,15.0,-,0.01,Rain,Light Rain,320,2013-01-04 18:55:00
1:15 PM,46.2,43.9,92,30.38,1.2,NNW,13.8,18.4,N/A,Rain,Light Rain,330,2013-01-04 19:15:00
1:35 PM,46.4,43.9,91,30.38,1.5,NNW,13.8,-,0.01,,Drizzle,340,2013-01-04 19:35:00
1:55 PM,46.4,44.1,92,30.36,1.8,NNW,16.1,23.0,0.01,Rain,Light Rain,340,2013-01-04 19:55:00
2:15 PM,46.4,44.1,92,30.36,2.0,NNW,13.8,-,N/A,Rain,Light Rain,330,2013-01-04 20:15:00
2:35 PM,46.4,43.9,91,30.36,1.8,NW,12.7,-,N/A,Rain,Rain,320,2013-01-04 20:35:00
2:55 PM,46.4,43.9,91,30.34,2.0,NNW,16.1,19.6,0.01,,Light Drizzle,330,2013-01-04 20:55:00
3:15 PM,46.8,44.4,92,30.34,2.0,NNW,11.5,18.4,N/A,,Overcast,330,2013-01-04 21:15:00
3:35 PM,46.6,44.2,92,30.35,2.0,NNW,10.4,-,N/A,,Overcast,330,2013-01-04 21:35:00
3:55 PM,46.6,44.1,91,30.34,2.0,NNW,12.7,-,N/A,,Overcast,330,2013-01-04 21:55:00
4:15 PM,46.8,44.4,92,30.34,2.5,NNW,10.4,-,N/A,,Overcast,330,2013-01-04 22:15:00
4:35 PM,46.6,44.1,91,30.34,3.0,NNW,13.8,-,N/A,,Overcast,340,2013-01-04 22:35:00
4:55 PM,46.8,44.2,91,30.34,4.0,NNW,15.0,-,N/A,,Overcast,340,2013-01-04 22:55:00
5:15 PM,46.8,44.2,91,30.35,5.0,NNW,9.2,-,N/A,,Overcast,330,2013-01-04 23:15:00
5:35 PM,46.8,44.1,90,30.35,4.0,NNW,12.7,-,N/A,,Overcast,330,2013-01-04 23:35:00
5:55 PM,46.8,43.9,90,30.35,5.0,NNW,11.5,-,N/A,,Overcast,330,2013-01-04 23:55:00
6:15 PM,46.9,43.7,88,30.36,7.0,NNW,10.4,-,N/A,,Overcast,330,2013-01-05 00:15:00
6:55 PM,46.9,43.7,88,30.36,5.0,NNW,12.7,-,N/A,,Overcast,330,2013-01-05 00:55:00
7:15 PM,46.9,43.7,88,30.36,7.0,NW,11.5,-,N/A,,Overcast,320,2013-01-05 01:15:00
7:35 PM,46.9,43.7,88,30.36,5.0,NNW,9.2,-,N/A,,Overcast,330,2013-01-05 01:35:00
7:55 PM,46.9,43.3,87,30.37,5.0,NNW,10.4,-,N/A,,Overcast,330,2013-01-05 01:55:00
8:15 PM,46.9,43.3,87,30.37,7.0,NW,11.5,-,N/A,,Overcast,320,2013-01-05 02:15:00
8:35 PM,47.3,43.7,87,30.37,5.0,NNW,13.8,-,N/A,,Overcast,330,2013-01-05 02:35:00
9:15 PM,47.3,43.3,86,30.37,5.0,NNW,11.5,-,N/A,,Overcast,330,2013-01-05 03:15:00
9:35 PM,47.3,43.2,86,30.38,7.0,NNW,11.5,-,N/A,,Overcast,330,2013-01-05 03:35:00
9:55 PM,47.3,43.2,86,30.38,7.0,NNW,11.5,-,N/A,,Overcast,330,2013-01-05 03:55:00
10:15 PM,47.3,43.2,86,30.37,5.0,NNW,11.5,-,N/A,,Overcast,330,2013-01-05 04:15:00
10:35 PM,47.3,42.8,84,30.37,7.0,NNW,11.5,-,N/A,,Overcast,330,2013-01-05 04:35:00
10:55 PM,47.5,42.8,84,30.36,5.0,NNW,9.2,-,N/A,,Haze,330,2013-01-05 04:55:00
11:15 PM,47.5,42.8,84,30.36,5.0,NNW,9.2,-,N/A,,Haze,330,2013-01-05 05:15:00
11:35 PM,47.7,42.8,83,30.35,7.0,NNW,10.4,16.1,N/A,,Overcast,330,2013-01-05 05:35:00
11:55 PM,47.7,42.6,83,30.35,7.0,NW,11.5,-,N/A,,Overcast,320,2013-01-05 05:55:00